Temp
12 13 13 13 15 16 16 17 17 17 17 18 19 19 20 20 22 20 26 29 28 27 26 28 29 30 31 33 34 35 32 33 34 34 35 36 35 36 36 34 34 34 33 32 30
11 12 12 13 13 14 16 17 17 17 17 18 18 19 20 20 20 27 29 28 27 27 26 30 31 32 33 33 34 33 32 33 35 35 34 35 35 36 35 34 34 33 32 30 30
10 10 11 11 12 13 14 15 16 17 17 18 18 19 20 20 25 32 28 28 27 27 29 31 32 33 32 34 34 33 32 34 35 35 35 34 35 36 34 33 35 33 34 32 30
9 9 10 10 12 13 13 14 15 16 16 17 17 18 19 19 28 28 26 27 26 25 28 31 33 33 32 33 35 33 33 34 34 35 35 34 35 34 34 34 35 34 34 33 31
9 9 9 9 10 11 12 13 14 14 15 16 16 17 17 24 26 28 26 26 23 24 27 32 32 33 32 33 34 33 33 33 35 35 35 35 34 34 34 35 35 34 33 33 32
9 9 9 9 9 9 9 10 11 13 14 16 16 16 17 21 27 28 26 25 27 26 29 31 32 34 33 33 33 34 34 34 35 35 35 33 34 33 34 34 33 33 33 32 31
9 9 9 9 9 9 9 9 11 12 13 14 15 13 20 23 27 29 28 28 28 28 30 30 32 33 33 32 35 34 33 34 34 34 34 34 32 33 34 33 33 32 31 31 32
9 9 9 9 9 9 9 10 12 14 15 16 16 15 21 25 25 26 27 29 29 29 29 30 30 32 33 34 34 33 33 32 34 35 34 33 31 34 34 33 32 32 32 32 31
8 8 8 9 9 9 9 10 12 14 16 16 15 18 23 26 25 26 28 29 29 29 30 30 32 31 32 32 32 32 31 32 33 35 34 32 31 34 34 34 33 33 33 32 31
8 8 8 8 9 9 9 11 13 11 13 14 19 21 24 27 28 27 28 28 30 30 29 30 30 30 31 32 30 31 32 33 33 34 33 32 32 34 34 34 33 33 33 32 30
8 8 8 8 8 8 9 14 19 18 19 23 24 24 29 28 28 28 28 29 30 30 28 30 30 29 31 32 33 33 33 33 34 35 33 33 32 33 34 34 34 34 33 32 31
7 8 8 8 8 8 9 16 21 17 20 23 23 26 27 28 27 29 29 28 28 29 30 30 29 32 32 33 32 33 32 32 33 34 33 32 31 33 33 34 34 34 33 32 30
7 7 8 8 8 8 12 17 17 17 20 24 25 26 26 28 27 29 30 29 29 29 30 30 31 32 33 32 32 32 32 32 32 33 33 32 31 33 34 34 34 34 33 33 30
7 7 8 7 8 13 16 16 16 17 21 25 27 27 28 28 27 29 31 30 30 29 31 31 33 33 32 32 33 31 33 32 32 31 30 33 30 32 33 33 34 34 33 32 31
7 7 7 7 10 14 15 15 16 17 22 31 30 29 30 27 29 29 30 30 29 30 31 31 32 33 32 32 34 32 33 33 32 30 30 31 30 32 33 33 33 34 34 32 31
7 7 7 9 10 11 13 15 16 19 22 28 29 27 28 28 29 32 29 31 31 31 32 32 34 34 34 34 33 33 32 32 32 31 29 30 31 32 33 33 33 34 34 32 31
7 7 7 9 12 12 11 16 17 20 27 28 28 28 29 28 28 30 28 28 29 28 30 32 33 34 34 32 33 32 31 29 28 29 28 32 31 32 33 33 33 33 33 32 31
7 6 7 9 11 11 11 15 16 23 26 31 30 29 28 30 28 29 29 28 30 30 31 30 30 33 34 32 32 31 31 30 27 29 31 32 30 32 34 34 33 33 33 31 30
6 6 9 10 10 11 10 11 17 23 27 27 29 28 28 30 29 29 29 29 30 31 31 31 31 33 33 33 33 32 30 32 30 31 31 32 33 33 33 33 33 33 31 30 29
6 6 9 11 10 11 8 11 18 21 24 27 26 29 28 29 29 29 29 30 30 31 33 33 31 34 33 33 33 33 33 30 31 28 28 31 31 31 32 33 32 32 31 29 29
6 6 10 11 9 8 7 11 16 19 22 21 23 25 29 29 30 30 30 31 31 32 32 32 32 32 33 31 31 32 32 31 31 31 29 29 31 33 33 33 32 32 31 29 29
5 8 12 9 7 7 9 13 14 17 21 20 20 21 23 28 30 29 30 32 33 32 30 32 31 31 31 33 33 33 32 32 30 29 31 31 32 34 33 33 33 33 31 30 30
8 11 11 10 8 9 13 14 14 15 17 18 19 20 22 23 24 30 30 33 33 32 31 32 30 30 31 31 32 31 32 32 31 31 30 30 31 34 33 33 33 33 32 31 30
6 8 8 7 7 9 11 14 14 15 16 16 17 19 19 20 24 26 30 32 33 32 29 30 31 29 30 30 31 30 31 32 31 30 30 31 32 32 33 33 33 33 32 31 30
10 10 11 8 8 9 10 11 13 15 15 17 17 17 19 21 24 26 30 31 32 29 30 30 29 30 31 33 32 31 31 32 31 31 30 31 31 33 33 33 33 33 32 31 30
7 9 11 9 10 10 11 12 12 14 14 15 17 17 18 19 22 24 26 28 30 30 30 30 28 30 30 32 32 31 31 31 32 32 31 31 32 34 34 34 34 33 32 31 31
8 8 8 8 8 9 9 11 12 14 15 14 15 17 17 18 17 19 22 23 25 29 30 28 29 28 28 31 31 31 31 31 31 32 32 31 32 34 33 33 34 33 32 32 31
Height
816 813 812 809 805 803 803 801 799 797 796 794 792 790 785 783 779 779 774 771 768 773 773 776 776 774 773 767 762 757 777 773 761 754 749 735 744 733 734 746 744 747 751 754 760
815 812 809 805 801 804 804 798 798 797 794 791 788 786 784 781 776 768 767 764 765 765 774 770 767 769 767 765 758 765 772 763 743 740 747 742 739 733 738 743 745 749 751 758 761
813 810 808 806 805 802 797 794 795 792 791 789 786 787 784 782 772 752 753 755 758 761 766 764 759 760 765 756 754 756 767 752 745 742 738 742 740 729 739 747 736 741 740 749 756
811 809 807 804 800 798 796 793 791 789 789 787 787 788 785 785 775 750 754 751 756 761 764 758 755 757 761 760 745 757 749 748 745 740 738 743 734 739 738 738 731 737 740 743 750
809 807 805 802 799 796 793 791 791 791 789 787 790 789 787 776 758 755 756 747 756 763 759 752 751 750 756 749 743 749 749 746 736 734 733 732 739 740 737 728 731 736 739 741 744
808 807 805 802 800 797 794 791 790 788 786 785 788 788 787 776 752 751 750 752 755 759 753 750 744 740 745 744 744 740 738 737 731 731 731 739 737 736 733 729 735 736 737 738 743
806 804 802 799 796 793 790 788 786 785 784 784 784 784 776 755 750 747 747 747 748 750 749 748 745 743 741 744 730 732 745 737 733 729 733 729 745 738 730 728 729 733 737 737 737
802 801 798 796 794 791 787 783 781 779 776 776 778 781 760 747 746 745 744 742 743 743 744 743 745 741 736 731 733 740 738 751 726 719 726 737 754 722 719 726 730 730 729 731 733
799 797 795 793 791 788 783 778 774 771 769 771 775 772 750 734 735 732 735 734 738 741 739 739 738 740 738 745 746 741 755 744 732 713 726 736 746 720 713 719 724 723 722 725 731
796 793 792 790 787 784 780 775 769 769 767 771 767 767 740 724 722 723 725 729 730 734 739 739 737 742 740 742 756 745 738 730 735 715 723 733 734 719 710 713 717 714 717 719 728
793 791 789 787 785 783 780 772 764 760 756 737 730 727 709 715 718 716 718 719 725 728 740 731 739 740 730 724 724 722 723 725 714 708 720 726 730 722 709 708 708 707 708 714 722
790 788 787 784 782 780 779 770 750 759 745 732 725 717 715 713 715 710 713 720 724 726 724 727 729 715 716 718 722 722 726 727 718 712 719 727 731 718 709 705 700 700 701 709 719
785 784 783 781 778 775 770 759 758 757 743 714 706 704 707 709 707 703 702 709 715 720 714 716 709 707 709 714 719 718 727 727 729 716 714 726 730 713 698 693 692 693 697 701 714
781 781 780 779 777 764 757 756 759 758 737 693 684 677 688 699 696 694 690 700 702 709 705 703 692 698 706 709 707 723 708 718 724 732 746 717 742 717 702 696 692 690 694 701 709
777 776 777 777 770 761 758 760 758 757 732 647 653 659 662 677 671 677 682 690 697 696 698 693 694 694 701 701 695 711 703 712 719 734 734 730 736 715 694 697 694 687 685 694 704
773 772 773 773 770 763 760 760 758 741 709 656 645 661 663 668 669 657 676 679 683 688 682 683 670 676 681 681 691 695 708 714 718 728 749 728 727 715 697 694 693 685 684 692 701
768 768 769 768 763 763 762 758 743 708 654 648 649 652 653 660 671 663 677 685 686 701 692 682 675 669 667 691 688 699 719 743 755 747 746 707 719 708 690 686 687 687 684 691 700
763 764 764 763 762 762 761 748 720 666 652 621 633 645 653 646 661 662 667 678 671 672 674 687 696 668 661 680 692 701 711 728 757 740 716 698 725 702 680 679 681 683 686 690 702
758 759 758 757 758 761 762 742 695 659 646 644 632 643 648 636 643 657 653 658 655 654 669 673 674 656 661 669 675 694 712 698 716 705 714 701 691 682 681 682 679 683 691 697 703
753 754 750 750 755 758 762 732 692 676 658 642 651 635 643 635 642 644 649 638 647 645 642 644 676 648 658 666 669 676 683 716 710 741 742 708 702 700 692 684 683 688 694 699 703
749 748 739 743 753 757 753 723 703 688 670 676 659 647 630 628 627 630 629 623 630 637 641 644 653 657 652 671 676 680 686 693 695 701 721 725 702 668 677 678 683 681 689 698 702
748 741 729 738 750 748 737 708 712 695 677 682 679 672 656 627 619 627 623 617 607 622 647 633 651 661 656 646 654 661 675 680 705 718 701 696 694 662 673 673 676 676 685 694 699
739 728 735 739 737 733 714 709 712 703 691 695 682 679 662 653 647 613 615 601 600 616 626 635 651 670 662 661 654 666 664 670 678 687 698 708 699 657 666 673 674 675 681 690 697
745 736 738 740 738 728 719 701 700 702 693 695 689 680 681 667 642 628 608 602 596 606 616 630 638 651 652 651 654 674 665 665 678 694 699 689 679 671 672 674 671 675 678 686 695
735 729 725 732 731 730 725 714 703 691 696 691 688 684 675 661 638 626 604 604 600 609 613 626 646 641 636 631 643 654 662 661 669 675 689 682 680 667 661 664 664 668 676 685 691
743 732 727 726 722 720 715 707 702 695 694 691 682 679 672 667 649 635 623 608 605 607 612 618 642 639 646 635 632 651 651 654 656 660 668 671 672 650 649 652 658 663 672 681 687
739 740 740 731 726 721 719 706 700 695 687 698 688 677 676 672 675 660 643 631 618 608 612 625 632 646 655 637 637 647 638 645 650 650 656 673 664 648 654 656 656 660 667 674 680
Wind_Speed
16 17 18 18 17 16 17 16 17 17 17 17 18 18 18 20 19 11 17 13 17 12 17 19 18 18 20 17 20 13 13 15 19 16 10 10 13 6 4 10 7 4 7 5 6
17 17 17 19 19 18 17 17 17 18 18 18 19 20 19 21 20 25 29 21 21 23 21 24 20 20 16 19 17 15 14 21 15 14 12 16 17 17 6 10 9 8 7 5 8
18 18 18 18 18 19 19 19 19 19 20 19 19 20 18 19 18 18 5 22 26 27 30 26 22 20 21 20 20 20 18 18 18 15 14 15 17 9 9 10 10 3 7 14 13
18 18 19 19 19 20 20 20 21 20 20 19 19 19 17 10 8 6 3 8 22 23 29 30 23 23 23 24 21 21 19 20 16 18 15 13 10 9 8 11 4 6 4 8 12
18 19 19 19 19 19 20 20 21 20 20 19 18 15 9 11 18 15 7 6 10 23 30 26 25 26 26 25 22 19 18 20 21 17 15 14 10 12 12 7 4 5 7 10 11
18 18 18 19 19 19 19 20 20 20 20 19 17 13 7 20 14 18 15 11 12 19 24 26 22 23 24 24 21 21 25 20 17 17 16 11 16 5 11 2 3 9 11 9 10
19 18 18 20 21 23 22 22 22 21 20 19 16 9 16 24 9 11 14 20 22 21 17 26 29 22 22 24 21 21 19 20 18 18 17 12 17 16 12 9 9 8 11 13 13
18 19 18 18 21 20 22 25 24 20 22 18 14 11 12 20 23 32 22 14 12 17 28 23 27 28 24 18 22 20 23 19 22 22 13 9 19 14 12 12 11 13 14 12 12
18 17 18 19 18 22 25 29 24 21 18 12 8 14 20 9 31 36 29 30 28 20 21 22 17 25 24 20 19 19 18 22 19 11 13 16 19 19 6 11 13 13 13 11 11
19 19 19 19 21 23 26 28 19 15 5 8 16 6 19 19 22 21 27 33 20 20 18 17 14 19 20 19 21 20 23 20 16 14 11 16 19 19 16 15 16 17 13 11 13
18 17 18 19 19 20 22 17 5 8 24 17 15 17 6 15 13 11 19 22 22 22 24 24 18 24 32 29 24 22 20 16 12 7 14 11 17 20 20 15 18 18 13 12 14
17 17 17 19 18 19 19 11 6 6 10 28 29 26 27 7 9 18 18 18 23 25 26 22 27 27 27 27 28 25 20 19 15 15 10 14 19 21 20 21 18 16 13 10 13
19 16 16 17 19 19 20 20 6 7 9 20 29 31 28 25 23 18 25 23 25 28 29 30 26 27 26 26 26 23 20 17 17 16 11 12 23 22 15 10 13 11 6 9 14
17 16 13 13 13 15 17 13 9 4 7 18 18 26 30 25 30 29 27 26 23 30 28 27 28 26 27 26 24 22 18 19 16 15 13 14 16 15 16 9 10 13 11 10 14
18 16 12 9 19 14 7 3 6 7 8 7 28 9 20 32 8 29 38 25 29 23 25 30 27 29 25 28 25 19 17 16 13 15 18 19 11 16 10 10 6 8 12 12 14
18 16 12 13 17 20 15 6 9 9 13 9 13 16 20 33 33 10 35 27 24 27 27 30 28 24 26 22 18 20 16 15 11 11 15 18 15 15 9 4 4 3 5 13 14
19 16 15 15 13 11 15 9 8 14 16 14 18 18 25 23 33 27 31 31 27 27 28 27 32 26 18 22 22 16 13 11 12 13 13 17 11 10 14 4 5 4 3 10 13
18 17 17 19 17 11 10 12 16 22 33 6 21 21 28 23 32 31 28 29 33 29 16 23 26 29 21 25 23 22 20 12 15 13 13 11 7 5 4 2 3 3 2 10 13
15 17 20 20 19 13 6 14 21 24 22 32 14 18 26 28 17 31 30 33 34 33 26 24 27 25 25 24 25 18 21 21 20 17 11 6 7 9 6 10 8 4 4 9 14
10 9 20 20 19 14 5 24 29 26 26 23 33 20 22 28 23 33 30 33 34 35 28 16 18 23 27 19 27 23 20 19 14 17 16 13 10 4 10 5 8 7 7 12 16
9 3 12 21 18 5 8 20 29 31 31 17 21 20 26 27 28 23 28 19 35 36 32 28 18 22 26 24 26 21 20 15 15 13 11 10 8 8 6 5 2 9 11 16 17
5 3 13 28 6 3 13 29 26 32 27 18 20 22 26 25 24 29 31 31 27 32 37 33 13 17 29 26 25 26 26 22 10 18 12 12 3 10 7 5 5 9 13 17 17
3 4 4 17 7 13 19 28 28 27 29 26 19 18 24 24 22 27 30 29 19 30 34 27 17 17 22 20 24 25 23 21 19 14 15 12 12 6 10 5 7 5 13 16 17
2 2 3 3 2 11 16 21 21 21 30 22 28 18 22 23 24 18 27 27 24 21 25 23 20 26 20 25 22 25 25 25 22 16 16 16 15 13 13 12 10 6 13 17 17
3 3 2 3 10 13 16 16 20 22 20 23 23 26 24 22 19 23 21 26 21 17 21 26 26 26 26 20 25 23 26 27 27 23 21 18 18 16 10 12 12 12 13 15 19
2 3 2 10 11 9 11 15 18 20 7 18 24 23 21 19 17 18 16 17 23 21 25 22 24 24 26 26 24 27 25 26 27 25 23 22 18 14 11 10 11 14 11 16 19
3 2 3 4 6 5 8 6 10 15 18 19 22 22 24 23 17 27 21 22 23 24 24 23 20 23 22 24 26 23 28 27 24 23 22 21 20 14 10 15 7 10 11 16 19
Wind_Direction
329 326 327 327 327 325 323 323 326 329 327 327 324 326 328 327 316 280 245 238 208 233 178 186 203 211 217 230 231 243 259 263 269 286 301 305 279 282 162 279 216 264 282 44 143
327 326 325 324 327 320 311 318 317 316 319 322 324 325 330 328 307 271 266 237 210 206 198 197 199 210 219 230 236 234 248 259 285 302 302 301 295 298 241 251 233 220 240 211 199
337 333 325 322 318 317 319 316 310 312 313 316 320 320 325 327 285 275 266 229 218 211 213 208 216 214 229 231 232 229 246 271 285 289 291 311 290 301 288 274 303 279 244 181 207
327 332 332 327 320 316 313 311 311 310 307 308 313 315 319 308 264 66 43 205 218 210 223 228 222 227 226 236 234 243 243 269 277 271 273 279 306 298 278 274 337 319 298 193 213
317 319 324 328 325 321 316 312 308 304 303 299 299 308 316 241 246 273 255 80 189 207 223 227 222 223 228 237 246 234 252 254 260 259 261 273 274 271 292 307 293 255 238 234 221
307 309 309 313 316 319 319 318 309 304 299 291 289 298 248 259 257 248 223 201 194 206 222 235 230 227 240 242 243 235 237 251 258 254 256 237 264 180 271 67 285 253 249 239 230
294 296 306 307 312 313 312 310 305 302 293 282 279 275 259 244 272 244 230 234 231 229 235 230 240 238 237 249 246 254 255 258 255 254 251 237 255 243 253 197 244 252 237 239 217
295 293 290 298 309 315 319 314 306 294 288 276 271 241 257 254 249 248 240 228 231 241 226 239 226 247 241 247 255 245 244 254 250 227 225 216 257 259 216 241 252 250 232 236 221
307 299 294 292 296 305 313 314 306 295 284 265 215 223 259 249 227 236 232 236 236 238 225 233 241 227 237 244 240 226 245 242 249 182 224 208 260 280 221 276 268 272 264 231 210
307 306 300 299 296 297 304 309 300 277 233 209 247 226 246 241 236 238 229 230 219 213 223 220 225 220 227 225 230 226 232 232 251 218 196 255 254 258 249 248 265 264 239 233 211
303 303 301 301 298 297 307 314 218 205 213 210 194 215 267 212 219 219 219 206 211 223 210 209 216 210 213 222 227 247 262 270 275 279 250 259 273 282 288 278 269 269 236 229 207
303 299 299 300 296 294 290 256 335 341 273 230 252 235 247 244 244 217 184 200 201 210 202 207 222 218 218 223 232 243 255 261 260 270 272 282 285 284 288 271 278 267 234 213 196
291 297 295 302 299 279 258 254 288 298 258 249 232 233 226 234 234 233 203 202 202 212 204 216 213 221 222 225 226 229 242 251 259 275 257 282 269 264 265 268 263 253 240 208 195
296 285 297 305 277 259 249 246 234 268 269 253 210 235 222 214 236 225 213 209 226 214 214 220 227 213 223 224 226 234 227 247 266 272 264 268 291 293 276 273 267 223 206 224 183
292 279 281 266 306 286 58 247 267 235 259 239 202 165 198 197 162 205 220 205 220 206 213 221 220 221 213 225 223 236 241 248 234 254 269 264 265 279 264 249 268 239 209 179 174
281 277 266 260 250 255 293 283 253 224 231 229 144 186 188 201 216 212 197 211 221 229 223 231 214 224 225 214 219 233 227 252 262 256 256 257 258 267 279 100 303 271 106 152 171
267 267 244 250 255 237 279 239 209 224 213 226 183 189 198 192 202 220 187 198 205 208 218 215 228 212 211 210 216 213 213 223 228 232 248 247 240 278 296 306 291 322 149 152 165
268 255 245 239 244 248 278 217 231 220 225 231 182 198 205 189 203 211 187 201 208 208 201 209 213 212 195 212 204 200 211 224 215 233 249 139 236 276 215 26 263 269 329 133 164
270 238 238 227 229 204 238 224 220 232 215 247 194 204 210 197 193 205 204 206 201 205 224 203 217 204 200 204 220 190 216 224 259 286 291 236 235 191 193 228 200 148 167 155 166
230 218 240 217 211 197 235 235 239 255 277 264 237 233 213 209 207 196 197 211 211 211 217 209 212 219 193 203 220 212 201 219 230 247 261 241 237 236 178 190 105 149 169 157 163
215 179 223 197 183 194 218 230 237 260 274 317 315 280 241 215 204 203 209 203 206 204 217 232 212 198 188 197 205 205 226 206 245 223 235 248 266 106 139 134 346 145 160 165 168
151 206 163 151 185 193 229 227 248 257 256 288 301 292 280 262 220 218 215 211 196 208 205 217 215 226 202 196 213 212 211 208 214 222 251 270 240 106 175 216 177 153 161 168 172
223 208 160 177 216 225 243 244 243 266 263 265 271 296 302 299 283 224 230 224 188 201 201 204 211 219 195 205 201 224 211 216 223 243 231 224 243 203 150 171 189 191 164 171 175
33 253 187 214 222 262 276 258 248 248 252 265 277 276 285 279 269 266 215 228 229 199 201 202 210 212 209 200 190 208 222 206 217 216 231 238 256 151 182 193 177 203 160 176 180
244 261 278 227 233 239 254 286 281 249 245 261 248 259 266 272 261 249 233 220 205 206 202 193 218 211 228 207 197 205 213 218 214 218 222 228 235 251 233 193 200 168 164 185 186
298 275 281 285 255 263 247 254 259 274 225 249 245 250 274 288 304 293 291 247 204 207 201 189 215 215 218 228 206 205 212 221 223 221 223 232 242 230 208 235 187 161 177 189 192
227 179 285 242 298 272 253 252 296 286 263 239 265 253 247 263 320 299 311 297 296 203 191 187 205 212 223 214 228 220 208 213 221 225 222 222 228 236 214 212 209 174 180 195 193